Regional Weather Roundup
Issued by NWS

Home | Current Version | Previous Version | Text Only | Print | Product List | Glossary On
Versions: 1 2 3 4 5 6 7 8 9 10 11 12 13 14 15 16 17 18 19 20 21 22 23 24 25 26 27 28 29 30 31 32 33 34 35 36 37 38 39 40 41 42 43 44 45 46 47 48 49 50
000
ASUS44 KFWD 130001
RWRTX
NORTH TEXAS HOURLY WEATHER ROUNDUP
NATIONAL WEATHER SERVICE FORT WORTH TX
600 PM CST FRI FEB 12 2016

NOTE: "FAIR" INDICATES FEW OR NO CLOUDS BELOW 12,000 FEET WITH NO
SIGNIFICANT WEATHER AND/OR OBSTRUCTIONS TO VISIBILITY.

TXZ118-119-130100-
DALLAS/FORT WORTH METROPLEX

CITY           SKY/WX    TMP DP  RH WIND       PRES   REMARKS
DFW AIRPORT    CLEAR     65  36  34 NE9       30.28R
6HR MIN TEMP:  62; 6HR MAX TEMP:  71;

DALLAS LOVE    CLEAR     66  35  31 NE8       30.29R
6HR MIN TEMP:  66; 6HR MAX TEMP:  70;

FTW MEACHAM    CLEAR     66  37  34 E7        30.29R
6HR MIN TEMP:  65; 6HR MAX TEMP:  70;

DAL-EXECUTIVE  CLEAR     65  35  33 NE9       30.28R
6HR MIN TEMP:  63; 6HR MAX TEMP:  69;

FTW-ALLIANCE   CLEAR     64  36  35 NE7       30.29R
6HR MIN TEMP:  64; 6HR MAX TEMP:  70;

FTW-NAS-JRB    CLEAR     67  35  30 NE7       30.29R
6HR MIN TEMP:  64; 6HR MAX TEMP:  71;

FTW-SPINKS     CLEAR     64  37  36 N5        30.30R
ARLINGTON      CLEAR     68  36  30 NE7       30.29R
6HR MIN TEMP:  66; 6HR MAX TEMP:  72;

MESQUITE       CLEAR     63  37  39 N5        30.29R
LANCASTER      CLEAR     66  33  29 NE6       30.30R
6HR MIN TEMP:  63; 6HR MAX TEMP:  69;

$$

TXZ091>094-102>105-117-120-121-131>134-130100-
NORTH CENTRAL TEXAS

CITY           SKY/WX    TMP DP  RH WIND       PRES   REMARKS
SHRMAN/DENISON CLEAR     63  32  31 NE9       30.31R
6HR MIN TEMP:  61; 6HR MAX TEMP:  68;

GAINESVILLE    CLEAR     62  35  36 E7        30.32R
6HR MIN TEMP:  61; 6HR MAX TEMP:  68;

BRIDGEPORT     CLEAR     66  39  37 E6        30.31R
6HR MIN TEMP:  62; 6HR MAX TEMP:  71;

DECATUR        CLEAR     63  35  34 E6        30.30R
6HR MIN TEMP:  63; 6HR MAX TEMP:  68;

DENTON         CLEAR     63  36  36 NE8       30.29R
6HR MIN TEMP:  62; 6HR MAX TEMP:  69;

MCKINNEY       CLEAR     63  37  38 NE5       30.29R
6HR MIN TEMP:  62; 6HR MAX TEMP:  68;

ROCKWALL       CLEAR     64  38  38 NE6       30.28R
6HR MIN TEMP:  62; 6HR MAX TEMP:  69;

TERRELL        CLEAR     63  38  39 NE5       30.29R
6HR MIN TEMP:  63; 6HR MAX TEMP:  69;

WAXAHACHIE     CLEAR     64  39  40 NE5       30.30R
6HR MIN TEMP:  64; 6HR MAX TEMP:  69;

GRANBURY       CLEAR     67  36  31 NE5       30.29R
6HR MIN TEMP:  66; 6HR MAX TEMP:  72;

$$

TXZ083>090-098>101-113>116-127>130-139>142-154-155-130100-
WESTERN NORTH TEXAS

CITY           SKY/WX    TMP DP  RH WIND       PRES   REMARKS
WICHITA FALLS  CLEAR     61  38  42 NE7       30.30R
6HR MIN TEMP:  60; 6HR MAX TEMP:  68;

WF-KICKAPOO    CLEAR     65  33  29 E7        30.31R
6HR MIN TEMP:  61; 6HR MAX TEMP:  70;

VERNON         CLEAR     64  30  28 NE12      30.32R
6HR MIN TEMP:  32; 6HR MAX TEMP:  82;

ABILENE        CLEAR     67  32  27 E9        30.27R
6HR MIN TEMP:  62; 6HR MAX TEMP:  72;

ABILENE-DYESS  CLEAR     67  35  30 E8        30.26R
6HR MIN TEMP:  62; 6HR MAX TEMP:  72;

MINERAL WELLS  CLEAR     66  36  32 E8        30.27R
6HR MIN TEMP:  66; 6HR MAX TEMP:  73;

STEPHENVILLE   CLEAR     65  33  30 E5        30.30R
6HR MIN TEMP:  65; 6HR MAX TEMP:  72;

COMANCHE       CLEAR     66  33  29 E7        30.28R
6HR MIN TEMP:  66; 6HR MAX TEMP:  73;

BROWNWOOD      CLEAR     66  32  28 E10       30.27R
$$

TXZ143>147-156>162-174-175-130100-
CENTRAL TEXAS

CITY           SKY/WX    TMP DP  RH WIND       PRES   REMARKS
WACO           CLEAR     67  36  31 NE10      30.25R
6HR MIN TEMP:  67; 6HR MAX TEMP:  74; 6HR PCP: TRACE;

WACO-MCGREGOR  CLEAR     68  38  33 NE9       30.26R
6HR MIN TEMP:  68; 6HR MAX TEMP:  74;

HILLSBORO      CLEAR     65  35  31 NE7       30.27R
6HR MIN TEMP:  65; 6HR MAX TEMP:  71;

CORSICANA      CLEAR     68  36  30 N7        30.27R
6HR MIN TEMP:  67; 6HR MAX TEMP:  74;

HEARNE         CLEAR     73  47  39 CALM      30.22R
6HR MIN TEMP:  65; 6HR MAX TEMP:  77;

TEMPLE         CLEAR     68  41  37 NE10      30.25R HAZE
KILLEEN        CLEAR     68  34  28 NE10      30.24R
6HR MIN TEMP:  68; 6HR MAX TEMP:  74;

KILLEEN-SKYLRK CLEAR     68  39  34 NE9       30.25R HAZE
6HR MIN TEMP:  68; 6HR MAX TEMP:  75;

FORT HOOD      CLEAR     69  35  28 NE9       30.23R
6HR MIN TEMP:  69; 6HR MAX TEMP:  75;

HAMILTON       CLEAR     68  35  30 NE6       30.28R
6HR MIN TEMP:  68; 6HR MAX TEMP:  74;

$$

TXZ095>097-106>112-122>126-135>138-148>153-164>167-130100-
EAST TEXAS

CITY           SKY/WX    TMP DP  RH WIND       PRES   REMARKS
PARIS          CLEAR     63  32  31 N13       30.30R
6HR MIN TEMP:  61; 6HR MAX TEMP:  70;

SULPHUR SPRNGS CLEAR     65  34  30 CALM      30.31R
6HR MIN TEMP:  58; 6HR MAX TEMP:  68;

GILMER         CLEAR     65  35  33 N3        30.28R
6HR MIN TEMP:  59; 6HR MAX TEMP:  68;

MINEOLA        CLEAR     66  37  34 CALM      30.29S
TYLER          CLEAR     67  35  30 NE7       30.27R
6HR MIN TEMP:  66; 6HR MAX TEMP:  73;

LONGVIEW       CLEAR     65  35  33 N6        30.26R
6HR MIN TEMP:  63; 6HR MAX TEMP:  72;

MARSHALL       CLEAR     65  33  30 CALM      30.29R
6HR MIN TEMP:  63; 6HR MAX TEMP:  70;

ATHENS         CLEAR     66  36  32 N8        30.26R
PALESTINE      CLEAR     67  37  33 N6        30.26R
JACKSONVILLE   CLEAR     67  37  33 NE5       30.28R
NACOGDOCHES    CLEAR     68  39  34 NE5       30.25R
6HR MIN TEMP:  68; 6HR MAX TEMP:  75;

LUFKIN         CLEAR     70  47  43 NE5       30.23R
6HR MIN TEMP:  70; 6HR MAX TEMP:  76;

$$

SUPPLEMENTAL OBSERVATIONS (CENTRAL)

CITY           SKY/WX    TMP DP  RH WIND       PRES   REMARKS
$$

SUPPLEMENTAL OBSERVATIONS (WEST)

CITY           SKY/WX    TMP DP  RH WIND       PRES   REMARKS
$$

SUPPLEMENTAL OBSERVATIONS (EAST)

CITY           SKY/WX    TMP DP  RH WIND       PRES   REMARKS
$$

SUPPLEMENTAL OBSERVATIONS ARE A COLLECTION OF AUTOMATED INSTRUMENTS
THAT ARE MAINTAINED BY A VARIETY OF FEDERAL AND STATE AGENCIES.
CERTAIN ELEMENTS...SUCH AS HUMIDITY VALUES AND SUSTAINED WIND
SPEEDS...MAY BE APPROXIMATED.




USA.gov is the U.S. government's official web portal to all federal, state and local government web resources and services.